sat.trackr.live / text

‹ back to catalog

STARLINK-3853

NORAD 52359 · 2022-045AE

PAYLOAD ACTIVE UNKNOWN

§ Identity

Operator
Country
US
Launch date
2022-04-29
Launch site
AFETR
Launch vehicle
Mass (kg)
RCS (m²)

Purposes: comms

External: N2YO · Heavens-Above · Gunter

§ Orbital elements

Epoch: 2026-09-20T00:04:34.491072Z

Period
94.01 min
Inclination
53.1618°
Eccentricity
0.0001695
Mean motion
15.31693416 rev/d
Perigee alt
469.6 km
Apogee alt
471.9 km
Semi-major
6,848.9 km
B*
-1.9586e-5
RAAN
36.1055°
Arg perigee
48.5156°
Mean anomaly
311.5991°
Rev number
24,526

§ Raw data

STARLINK-38531 52359U 22045AE  26263.00317698 -.00000973  00000+0 -19586-4 0  99932 52359  53.1618  36.1055 0001695  48.5156 311.5991 15.31693416245267

JSON: /api/v1/satellites/52359 · /tle

For live sub-satellite position, see the globe view (requires WebGL).

§ Visibility from observer

Set your observer location to see the next 7 days of passes ≥ 10°. The values pass through the URL so the page stays shareable.

No JS? Fill the form by hand. The geolocation button needs JavaScript.